TimeCST,TemperatureF,Dew PointF,Humidity,Sea Level PressureIn,VisibilityMPH,Wind Direction,Wind SpeedMPH,Gust SpeedMPH,PrecipitationIn,Events,Conditions,WindDirDegrees,DateUTC
12:53 AM,50.0,19.0,29,30.31,-9999.0,ENE,8.1,-,N/A,,Unknown,70,2012-11-13 06:53:00
1:53 AM,50.0,23.0,35,30.29,-9999.0,ENE,6.9,-,N/A,,Unknown,70,2012-11-13 07:53:00
2:53 AM,51.1,25.0,36,30.28,-9999.0,East,9.2,-,N/A,,Unknown,90,2012-11-13 08:53:00
3:53 AM,50.0,24.1,36,30.29,-9999.0,East,6.9,-,N/A,,Unknown,80,2012-11-13 09:53:00
4:53 AM,48.9,24.1,38,30.29,-9999.0,East,4.6,-,N/A,,Unknown,90,2012-11-13 10:53:00
5:53 AM,48.9,24.1,38,30.30,-9999.0,East,6.9,-,N/A,,Unknown,90,2012-11-13 11:53:00
6:53 AM,48.9,24.1,38,30.32,-9999.0,East,5.8,-,N/A,,Unknown,90,2012-11-13 12:53:00
7:53 AM,50.0,24.1,36,30.32,-9999.0,East,10.4,-,N/A,,Unknown,80,2012-11-13 13:53:00
8:53 AM,52.0,24.1,34,30.33,-9999.0,East,15.0,19.6,N/A,,Unknown,100,2012-11-13 14:53:00
9:53 AM,53.1,21.0,29,30.33,-9999.0,East,16.1,23.0,N/A,,Unknown,100,2012-11-13 15:53:00
10:53 AM,55.0,21.0,27,30.32,-9999.0,ESE,18.4,23.0,N/A,,Unknown,110,2012-11-13 16:53:00
11:53 AM,57.0,21.9,26,30.30,-9999.0,ESE,16.1,23.0,N/A,,Unknown,110,2012-11-13 17:53:00
12:53 PM,59.0,23.0,25,30.25,-9999.0,SE,16.1,23.0,N/A,,Unknown,130,2012-11-13 18:53:00
1:53 PM,59.0,23.0,25,30.23,-9999.0,ESE,12.7,-,N/A,,Unknown,120,2012-11-13 19:53:00
2:53 PM,59.0,23.0,25,30.19,-9999.0,ESE,13.8,23.0,N/A,,Unknown,120,2012-11-13 20:53:00
3:53 PM,59.0,23.0,25,30.18,-9999.0,ESE,12.7,19.6,N/A,,Unknown,110,2012-11-13 21:53:00
4:53 PM,57.9,24.1,27,30.19,-9999.0,East,11.5,-,N/A,,Unknown,90,2012-11-13 22:53:00
5:53 PM,54.0,26.1,34,30.20,-9999.0,East,10.4,-,N/A,,Unknown,100,2012-11-13 23:53:00
6:53 PM,51.1,26.1,38,30.23,-9999.0,East,6.9,-,N/A,,Unknown,100,2012-11-14 00:53:00
7:53 PM,48.0,26.1,42,30.25,-9999.0,East,5.8,-,N/A,,Unknown,100,2012-11-14 01:53:00
8:53 PM,45.0,25.0,46,30.27,-9999.0,East,4.6,-,N/A,,Unknown,100,2012-11-14 02:53:00
9:53 PM,43.0,25.0,49,30.28,-9999.0,NE,4.6,-,N/A,,Unknown,40,2012-11-14 03:53:00
10:53 PM,42.1,24.1,49,30.28,-9999.0,NE,4.6,-,N/A,,Unknown,40,2012-11-14 04:53:00
11:53 PM,41.0,23.0,49,30.28,-9999.0,NNE,4.6,-,N/A,,Unknown,20,2012-11-14 05:53:00